Wind_Speed
8 8 8 8 8 9 8 8 9 9 8 8 8 8 9 7 7 6 6 5 5 5 5 5 4 4 4 4 4 3 4 3 4 4 4 4 5 6 6 7 8 8 8
7 7 7 7 7 7 7 8 8 8 8 8 8 8 8 7 6 5 5 4 4 4 5 5 4 4 4 4 4 4 4 5 5 5 5 6 7 7 7 7 8 8 9
6 6 6 6 6 6 6 6 7 7 8 7 7 7 7 7 7 5 5 5 5 6 5 5 4 5 5 5 6 6 6 6 7 7 7 7 8 8 8 8 8 9 9
5 5 5 5 5 5 6 6 6 7 7 7 7 7 7 7 7 7 6 6 6 7 6 5 5 5 5 6 7 7 8 8 8 8 8 8 8 8 9 9 9 10 10
5 5 5 5 5 5 5 6 6 6 7 8 7 7 7 7 8 8 7 7 6 6 6 6 6 6 7 7 7 8 8 9 9 9 9 9 9 9 10 10 10 11 11
6 5 4 5 5 5 5 6 6 6 7 8 8 8 8 7 8 8 8 8 7 7 7 7 7 8 9 9 9 9 9 9 9 10 10 10 10 10 11 11 12 12 13
6 5 5 5 5 6 6 6 7 7 7 8 8 8 8 7 8 9 10 9 9 8 8 8 8 9 10 10 10 10 10 10 10 10 11 11 11 11 12 12 13 13 13
8 7 6 6 6 6 7 7 8 8 8 8 8 8 8 8 9 10 11 10 10 9 9 9 9 10 11 11 11 11 12 11 11 11 11 11 12 12 12 12 12 12 12
9 8 7 7 7 7 8 9 9 9 9 9 9 9 9 9 10 11 12 11 10 10 10 10 11 11 12 12 12 12 12 12 12 12 12 12 12 12 12 12 12 12 13
9 9 9 8 9 9 9 10 11 11 11 10 10 10 10 10 11 12 12 11 11 11 11 11 12 12 12 12 13 13 13 13 13 13 13 13 12 12 13 13 14 14 14
11 11 11 10 11 11 11 12 12 12 12 11 11 11 11 11 11 12 12 11 11 11 12 12 13 13 13 13 13 13 14 14 14 14 14 14 13 14 14 15 15 15 16
13 13 13 13 13 12 13 13 13 13 13 12 12 12 12 12 12 12 12 12 12 13 13 13 14 14 14 14 14 14 14 14 14 15 15 15 15 15 16 16 16 17 18
15 15 14 15 15 14 14 15 14 14 13 12 12 12 13 13 13 13 13 13 14 14 14 15 15 15 15 16 16 16 16 16 16 17 17 17 16 16 17 18 18 18 18
17 16 16 16 16 16 16 16 14 14 13 12 12 13 13 14 14 14 14 15 15 15 16 16 16 16 17 17 17 17 18 18 18 18 18 18 17 17 18 18 19 19 19
18 18 18 17 17 17 17 16 15 14 14 13 13 14 14 15 15 16 16 16 16 16 16 17 17 18 18 18 18 18 19 18 18 18 19 19 19 19 19 19 20 20 21
20 20 20 20 19 19 18 17 17 16 16 15 15 15 15 16 16 17 17 17 17 17 17 18 18 19 19 20 19 20 20 19 19 19 19 20 21 20 20 20 21 21 22
22 21 21 21 20 20 20 18 18 17 16 16 17 17 18 18 18 18 18 19 19 19 20 20 20 21 22 22 22 22 21 22 20 20 20 20 21 22 22 23 23 24 24
23 22 22 22 21 21 21 21 20 19 18 18 19 19 19 19 20 19 20 21 22 22 22 22 22 22 22 22 23 22 22 22 22 22 21 22 23 24 25 25 25 26 26
24 24 24 23 22 22 22 21 21 20 20 20 20 20 20 21 21 22 22 22 23 23 23 23 23 23 23 23 23 23 24 24 24 24 24 25 26 27 27 27 27 27 27
26 26 25 24 23 22 22 22 21 22 22 22 22 22 22 23 23 24 25 25 25 25 24 24 24 24 24 24 24 24 25 26 26 26 26 26 27 27 28 28 28 28 29
25 25 24 23 23 22 22 22 22 23 23 24 24 24 25 25 25 26 26 27 26 26 25 25 25 25 25 26 25 25 26 26 26 27 27 27 28 28 29 29 30 30 30
25 24 24 24 23 23 23 23 24 25 25 26 25 26 27 28 28 28 28 27 27 27 26 26 26 25 26 26 26 26 26 27 27 27 27 27 28 29 29 30 30 30 30
25 25 26 25 24 24 25 26 26 27 27 27 27 27 28 29 29 29 28 28 28 28 27 27 27 26 27 27 27 27 27 27 27 28 28 28 29 29 29 30 30 30 30
26 26 26 27 27 27 27 27 27 27 27 27 28 28 29 29 29 30 29 29 29 29 28 28 28 28 28 28 28 28 28 28 28 28 29 29 29 30 29 29 30 30 29
27 27 27 28 28 29 29 28 28 28 28 28 29 28 29 30 30 30 31 31 30 29 30 30 29 29 29 30 30 29 29 29 29 30 30 30 29 30 30 30 30 29 28
28 28 29 30 30 30 30 30 29 29 29 29 29 30 30 31 30 31 31 31 31 31 31 31 31 31 31 31 31 31 31 30 30 30 30 30 29 30 30 29 29 28 28
Wind_Direction
22 31 35 37 39 42 43 47 47 45 42 40 40 40 42 45 47 49 48 40 42 44 36 41 47 35 22 22 22 16 358 343 340 340 339 335 329 328 325 324 319 316 315
11 22 27 31 35 37 36 37 39 39 36 35 36 35 37 41 45 43 38 31 27 30 27 27 24 20 13 12 5 1 355 344 340 339 335 330 324 321 326 327 326 322 320
9 15 16 21 26 27 24 24 28 27 27 30 31 25 27 29 24 18 18 14 15 13 11 6 359 358 356 355 350 346 343 340 339 340 333 330 326 320 324 322 322 322 323
346 356 4 1 5 13 15 14 16 18 19 16 12 11 17 13 7 3 6 9 6 2 356 349 345 343 341 340 338 337 335 334 332 334 333 330 328 323 320 321 323 321 319
329 339 351 348 344 349 358 4 3 2 4 3 3 1 3 360 355 351 350 355 356 346 339 336 335 333 333 330 328 329 328 328 325 325 326 325 322 321 322 322 322 321 319
319 325 337 338 335 336 341 346 349 348 347 349 354 354 349 350 346 343 342 341 337 332 331 331 330 327 326 323 319 322 324 324 322 320 318 316 316 318 319 321 323 320 318
307 306 310 324 325 321 326 332 333 333 335 338 343 345 347 347 347 346 344 339 336 337 334 338 331 329 330 328 323 320 320 317 315 316 317 314 314 317 318 318 318 316 319
294 299 306 315 311 314 317 320 323 325 324 328 332 333 336 335 337 341 341 337 335 336 340 338 331 327 325 324 323 324 318 314 313 316 319 319 316 316 317 320 321 321 322
284 292 297 306 312 316 315 316 319 321 319 318 318 319 324 327 331 337 338 335 333 332 329 328 326 324 323 322 322 321 319 317 317 320 321 319 318 317 317 318 318 318 318
271 275 283 297 305 306 307 311 314 315 313 311 313 316 321 322 324 328 333 333 330 329 327 324 322 321 320 319 318 320 318 319 318 318 319 318 318 317 316 315 313 313 314
269 275 282 291 295 299 301 303 305 309 309 306 307 311 314 318 320 323 326 325 324 323 323 321 320 319 317 315 315 312 310 311 312 312 313 313 312 313 314 314 312 311 310
268 272 279 287 288 291 296 297 298 303 306 305 303 305 309 313 314 315 318 318 318 318 317 318 318 316 315 315 315 314 310 310 310 309 309 310 309 309 310 310 309 308 309
267 270 276 283 287 289 292 293 295 298 302 305 303 302 303 305 307 308 311 313 315 317 317 319 318 315 312 312 312 311 307 307 308 307 306 307 307 307 308 308 308 307 308
264 268 273 279 284 287 290 290 295 299 301 303 304 304 303 303 304 307 310 311 311 312 313 313 314 313 312 311 311 310 310 307 306 304 302 303 305 306 308 308 308 308 308
265 267 269 274 276 280 285 287 291 292 295 296 298 301 301 302 303 303 307 309 310 310 311 311 312 313 311 310 311 310 309 307 306 303 302 302 305 306 307 307 307 307 307
265 266 269 271 274 276 279 283 284 287 290 291 293 296 297 299 301 302 304 305 307 306 307 309 310 310 309 308 308 307 307 306 305 304 302 303 306 306 306 306 307 307 306
265 266 268 271 271 272 274 276 279 283 287 288 289 291 293 295 297 298 299 302 303 302 302 304 306 305 306 306 304 302 303 303 301 301 302 304 306 305 303 304 305 305 304
259 263 267 269 271 273 274 275 277 280 283 285 286 289 292 293 294 296 297 299 301 301 301 302 305 304 304 305 305 304 303 301 301 301 302 303 303 304 302 304 305 306 306
259 262 266 269 272 272 273 275 277 279 281 282 285 287 290 292 293 294 296 297 299 300 301 301 302 302 302 304 303 303 303 302 300 301 301 301 302 303 302 302 303 304 305
261 263 266 268 270 270 272 274 275 276 278 280 282 284 286 290 292 293 294 296 298 299 300 300 300 300 300 302 302 302 302 300 299 299 299 300 300 301 301 301 301 302 302
262 263 264 266 268 267 267 271 273 274 276 278 280 281 283 286 288 289 291 293 295 297 298 298 298 298 298 301 301 300 300 300 300 300 299 298 299 300 300 301 301 301 302
260 261 263 265 265 266 267 271 274 276 278 279 279 280 282 284 285 287 289 290 292 294 295 295 295 296 297 300 301 300 299 300 300 301 300 299 300 300 301 301 300 300 301
258 260 262 263 265 268 271 273 276 277 277 278 279 279 282 283 283 285 287 289 290 291 291 292 293 293 295 297 299 299 300 300 300 300 300 299 300 301 301 301 301 301 301
259 260 262 265 266 269 272 274 275 275 276 277 278 278 280 282 283 284 285 287 289 290 291 291 292 292 294 296 297 298 298 299 299 299 300 300 300 301 301 300 301 301 301
258 260 262 265 268 269 271 272 272 274 275 276 278 279 280 280 282 283 283 284 287 289 291 291 291 291 292 293 294 296 296 296 297 298 298 298 299 300 300 300 300 300 299
258 260 263 266 269 269 270 270 271 272 275 277 279 280 281 281 281 282 283 284 286 287 289 290 290 290 290 290 292 294 294 294 295 296 295 295 296 298 299 299 300 300 300
Height
5905 5904 5903 5902 5901 5900 5899 5899 5898 5898 5897 5896 5895 5895 5894 5893 5892 5891 5891 5890 5890 5890 5889 5888 5888 5888 5887 5887 5886 5886 5886 5886 5885 5885 5885 5884 5884 5883 5883 5882 5882 5881 5880
5905 5905 5905 5904 5903 5902 5901 5900 5900 5899 5898 5898 5897 5896 5895 5894 5893 5892 5892 5891 5891 5891 5890 5890 5889 5888 5888 5887 5887 5886 5886 5886 5885 5885 5884 5884 5884 5883 5882 5881 5880 5879 5878
5907 5905 5905 5905 5904 5903 5902 5902 5901 5900 5900 5899 5898 5897 5896 5895 5895 5893 5893 5892 5892 5891 5891 5890 5890 5889 5888 5888 5887 5886 5886 5885 5885 5884 5884 5883 5882 5881 5881 5879 5879 5878 5877
5908 5907 5906 5905 5905 5904 5903 5902 5901 5901 5900 5899 5899 5898 5897 5896 5896 5894 5893 5893 5892 5891 5891 5890 5890 5889 5888 5887 5887 5886 5885 5885 5884 5883 5882 5882 5881 5880 5879 5878 5877 5876 5875
5908 5907 5906 5906 5905 5905 5904 5903 5902 5902 5901 5900 5899 5898 5897 5897 5896 5895 5894 5893 5892 5891 5891 5890 5889 5888 5888 5887 5886 5885 5884 5883 5882 5882 5881 5880 5879 5878 5877 5876 5875 5874 5873
5907 5907 5906 5906 5905 5905 5904 5903 5903 5902 5901 5900 5899 5898 5897 5897 5896 5895 5894 5893 5892 5891 5890 5889 5889 5888 5887 5886 5885 5884 5883 5882 5881 5880 5879 5878 5877 5876 5875 5874 5873 5872 5870
5907 5906 5906 5905 5905 5904 5904 5903 5903 5902 5901 5900 5899 5898 5897 5896 5896 5895 5894 5892 5891 5891 5890 5889 5888 5887 5886 5885 5884 5882 5881 5880 5879 5878 5877 5876 5875 5874 5873 5872 5870 5869 5867
5905 5905 5905 5904 5903 5903 5903 5903 5902 5901 5901 5900 5899 5898 5897 5896 5895 5895 5893 5892 5891 5890 5889 5888 5887 5886 5885 5883 5882 5881 5880 5878 5877 5876 5875 5874 5873 5872 5871 5869 5868 5866 5865
5904 5904 5904 5903 5902 5902 5902 5902 5901 5901 5900 5899 5898 5898 5897 5896 5895 5894 5892 5891 5890 5889 5888 5887 5886 5885 5884 5882 5881 5879 5878 5876 5875 5874 5873 5872 5871 5869 5868 5867 5865 5864 5862
5902 5902 5902 5902 5902 5901 5901 5901 5900 5899 5899 5898 5897 5897 5896 5895 5894 5893 5891 5890 5889 5888 5887 5886 5884 5883 5882 5880 5879 5877 5876 5875 5873 5872 5871 5870 5868 5867 5865 5864 5862 5861 5859
5901 5901 5901 5900 5900 5900 5899 5899 5898 5898 5897 5896 5896 5895 5894 5894 5892 5891 5890 5889 5888 5887 5886 5884 5883 5881 5880 5878 5876 5875 5873 5872 5871 5870 5868 5867 5866 5864 5863 5861 5859 5857 5855
5899 5899 5899 5898 5898 5897 5897 5897 5896 5895 5895 5894 5894 5893 5892 5891 5891 5889 5888 5887 5886 5885 5884 5882 5881 5879 5877 5875 5874 5872 5870 5869 5868 5866 5865 5864 5862 5861 5859 5857 5855 5853 5851
5896 5896 5896 5896 5895 5894 5894 5893 5893 5893 5892 5892 5891 5890 5890 5889 5888 5887 5886 5885 5884 5882 5881 5880 5878 5876 5875 5873 5871 5869 5867 5865 5864 5863 5861 5860 5858 5857 5855 5853 5851 5849 5847
5892 5892 5893 5893 5892 5891 5891 5890 5890 5890 5890 5889 5888 5888 5887 5886 5885 5884 5883 5882 5881 5880 5878 5877 5875 5873 5871 5869 5867 5865 5863 5861 5860 5859 5857 5856 5854 5852 5850 5849 5847 5845 5843
5888 5888 5889 5889 5889 5889 5888 5888 5887 5887 5887 5886 5886 5885 5884 5883 5882 5881 5880 5879 5877 5876 5875 5873 5871 5870 5868 5866 5864 5861 5859 5857 5856 5854 5853 5851 5850 5848 5846 5844 5842 5840 5838
5884 5884 5884 5884 5885 5885 5884 5884 5884 5884 5883 5883 5882 5882 5881 5880 5879 5878 5877 5875 5874 5872 5871 5869 5867 5866 5864 5862 5859 5857 5855 5853 5851 5850 5848 5847 5845 5843 5841 5839 5837 5834 5832
5879 5879 5880 5879 5880 5880 5880 5880 5880 5880 5879 5879 5878 5878 5877 5876 5875 5874 5873 5871 5870 5868 5867 5865 5863 5861 5859 5857 5855 5853 5851 5849 5847 5845 5844 5842 5840 5838 5835 5833 5831 5828 5826
5873 5873 5874 5874 5874 5875 5875 5875 5875 5875 5875 5874 5874 5873 5872 5871 5870 5869 5868 5867 5865 5864 5862 5860 5858 5856 5854 5852 5850 5847 5845 5843 5842 5840 5838 5836 5834 5832 5829 5827 5825 5822 5820
5867 5868 5868 5869 5869 5869 5869 5870 5870 5870 5870 5869 5869 5868 5867 5866 5865 5864 5863 5861 5860 5858 5856 5855 5852 5851 5849 5847 5845 5842 5840 5838 5836 5834 5832 5830 5828 5826 5823 5821 5818 5816 5813
5861 5862 5862 5863 5863 5863 5864 5864 5864 5864 5864 5864 5863 5863 5862 5861 5859 5858 5857 5855 5854 5852 5850 5848 5846 5844 5843 5841 5839 5836 5834 5832 5830 5828 5826 5824 5821 5819 5816 5814 5811 5809 5806
5854 5855 5856 5857 5857 5857 5858 5858 5858 5858 5858 5857 5857 5856 5855 5854 5853 5852 5850 5849 5847 5845 5843 5842 5840 5838 5836 5834 5832 5830 5827 5825 5823 5821 5819 5817 5814 5812 5809 5806 5804 5801 5798
5847 5848 5849 5850 5851 5851 5851 5852 5851 5851 5851 5850 5849 5849 5848 5847 5846 5845 5843 5841 5840 5838 5836 5835 5833 5831 5829 5827 5825 5823 5821 5818 5816 5814 5812 5809 5807 5805 5802 5799 5796 5793 5790
5840 5841 5842 5843 5844 5844 5845 5845 5844 5844 5843 5842 5842 5841 5840 5839 5838 5837 5835 5834 5832 5831 5829 5828 5826 5825 5823 5820 5818 5816 5813 5811 5809 5807 5804 5802 5800 5797 5794 5791 5788 5785 5782
5834 5834 5835 5836 5837 5837 5837 5837 5837 5836 5835 5835 5834 5833 5833 5832 5830 5829 5828 5826 5825 5823 5821 5820 5819 5817 5815 5813 5811 5808 5806 5804 5801 5799 5797 5794 5792 5789 5787 5784 5781 5778 5775
5826 5827 5828 5829 5829 5829 5829 5829 5829 5828 5827 5827 5826 5825 5824 5823 5822 5821 5819 5818 5817 5815 5814 5812 5810 5809 5807 5805 5803 5800 5798 5796 5793 5791 5789 5786 5784 5781 5779 5776 5773 5770 5767
5819 5820 5820 5821 5821 5821 5821 5820 5820 5820 5820 5819 5818 5817 5816 5814 5813 5812 5811 5810 5808 5807 5805 5804 5802 5800 5799 5796 5794 5792 5790 5787 5785 5783 5780 5778 5775 5773 5771 5768 5765 5763 5760